RH
86 79 80 78 75 73 66 66 72 72 76 81 85 89 88 90 92 88 81 76 76 78 85 85 84 87 84 86 88 85 77 70 67 62 59 57 59 65 66 64 63 62 55 44 32 33 54 65 65 66 65 64 62 60 54 50 56 64 72 78 77 81
82 79 80 75 73 74 63 68 78 76 77 77 80 86 86 88 88 87 81 72 72 76 81 75 76 85 79 79 83 83 79 71 68 64 60 57 57 62 66 64 63 62 56 48 39 40 56 64 64 65 65 65 63 62 58 55 60 68 76 77 75 82
78 80 81 81 81 71 60 74 84 79 80 77 76 80 82 87 87 89 82 74 81 85 84 78 75 79 78 78 75 76 78 72 71 68 61 58 55 58 64 65 63 62 58 54 53 50 55 61 62 64 64 63 60 59 58 56 61 67 75 74 70 79
79 80 80 84 83 69 67 86 88 79 81 80 77 74 79 88 87 90 83 74 84 88 85 82 81 82 84 86 79 74 72 67 68 70 65 59 56 55 60 65 64 62 60 64 70 65 57 52 53 62 66 62 58 57 56 56 62 67 72 71 66 75
80 81 81 81 76 70 80 94 89 82 84 84 81 79 86 90 87 89 86 80 84 88 85 82 82 86 85 86 87 81 73 68 63 63 66 62 57 54 57 64 65 61 59 65 73 70 61 53 52 61 65 62 59 57 54 53 61 68 71 67 63 75
81 83 80 77 76 76 85 91 86 86 88 86 84 87 92 90 86 88 89 87 86 86 87 84 82 85 87 85 86 84 82 81 69 60 61 61 62 59 59 67 68 60 56 62 71 67 61 58 57 59 60 59 58 56 53 54 59 65 69 64 62 74
85 86 81 80 83 80 83 88 87 87 89 87 86 89 93 91 89 89 92 92 90 88 85 85 86 85 87 85 84 84 83 85 82 74 64 59 66 66 63 72 75 64 55 63 71 64 58 57 54 52 56 58 58 55 50 52 59 63 67 64 60 69
85 85 84 84 86 84 84 88 87 87 90 91 88 88 93 95 93 92 95 96 94 91 84 84 88 88 86 81 82 82 76 77 80 81 73 64 69 69 61 66 74 69 63 68 69 61 56 55 49 48 53 56 56 52 49 51 57 62 65 67 62 63
85 84 86 88 89 90 90 92 90 86 87 94 95 91 94 95 93 96 95 92 93 93 89 84 82 85 87 83 83 79 73 72 70 72 73 62 65 69 58 58 67 68 68 68 64 60 57 54 48 48 52 55 56 53 52 52 56 63 66 71 68 60
88 87 87 89 95 95 94 94 92 88 88 96 97 93 96 91 88 95 90 87 93 96 96 91 83 81 83 85 86 82 77 74 68 67 69 59 58 65 60 58 62 63 67 64 61 60 56 53 50 48 49 54 58 56 55 53 56 64 71 76 75 67
90 91 87 85 93 94 90 90 90 91 94 96 95 94 96 88 84 91 88 88 97 100 96 89 86 85 81 82 84 81 79 77 71 65 68 63 58 61 60 60 60 61 65 64 62 60 55 53 50 46 48 54 58 57 55 55 57 65 74 79 81 75
86 88 84 83 89 89 89 90 91 94 96 95 92 92 96 91 87 92 88 86 92 95 92 84 85 92 87 84 83 79 80 81 77 70 70 69 61 58 59 60 60 60 64 66 66 62 58 54 49 45 48 53 55 55 56 58 59 64 73 79 81 80
90 89 88 88 90 92 93 94 94 93 93 93 90 87 91 90 89 91 85 80 82 84 89 89 88 90 87 89 91 85 82 84 81 75 73 72 66 60 59 61 62 61 65 68 67 64 60 55 50 48 48 52 53 52 57 60 60 64 71 77 79 80
90 90 91 88 86 90 92 92 92 88 87 92 93 93 91 88 87 86 82 83 87 88 90 94 96 94 90 91 93 89 85 84 80 75 73 71 68 63 62 64 64 64 66 69 68 65 61 58 55 52 49 51 52 51 56 59 61 66 70 73 75 76
86 87 89 85 82 86 90 90 88 84 84 85 90 95 90 85 86 87 86 84 88 95 95 95 97 97 96 93 92 90 85 81 79 76 74 72 69 67 66 66 64 62 64 67 70 68 64 62 60 55 51 53 53 53 57 60 63 68 70 70 71 73
83 86 88 86 85 88 89 88 88 86 82 78 83 90 85 84 86 88 90 85 82 89 91 92 92 91 93 92 90 91 86 78 77 77 77 75 72 70 68 66 62 60 61 63 66 68 66 64 63 59 55 55 55 56 59 63 67 69 70 70 70 73
80 81 83 84 85 88 87 85 89 91 90 89 91 89 83 84 86 85 85 83 80 80 81 82 86 88 88 87 86 88 86 77 75 77 80 80 78 75 73 69 65 62 63 63 62 63 63 64 70 70 64 58 57 60 63 65 70 71 70 71 70 73
80 80 79 80 82 85 86 86 88 91 93 92 89 84 80 81 82 81 81 81 80 79 78 77 80 84 83 83 86 86 85 81 80 83 82 81 82 80 77 74 70 66 65 65 63 64 66 68 75 79 74 67 61 61 64 66 70 72 72 71 71 74
77 80 80 80 80 80 80 81 82 86 88 85 84 86 83 79 78 79 78 81 84 83 83 82 83 88 84 85 91 89 86 85 86 89 82 76 79 80 79 78 75 71 67 67 67 68 69 68 71 77 76 76 72 65 64 69 71 71 72 71 72 75
77 79 79 76 74 74 73 73 74 78 82 82 84 87 85 82 79 79 78 80 86 88 88 85 86 93 89 84 89 90 90 89 88 92 88 79 76 76 79 81 79 75 70 69 71 71 70 67 68 74 75 77 82 76 69 72 74 73 74 72 73 76
78 78 77 74 74 75 75 75 74 74 77 78 78 81 85 85 82 82 82 81 85 88 87 83 82 89 88 82 85 90 92 91 87 89 92 89 81 76 78 82 84 81 76 73 73 72 73 74 75 80 81 82 89 88 80 77 76 75 76 76 77 77
73 73 74 74 74 77 80 82 81 80 80 79 76 77 80 81 80 81 80 81 85 86 85 85 81 82 85 83 83 88 91 91 89 88 89 92 90 83 81 85 91 91 85 80 76 76 80 83 86 89 89 92 94 92 87 81 79 79 80 80 78 76
71 72 74 75 75 77 83 85 83 83 84 83 81 79 79 80 81 80 78 81 85 85 85 86 85 85 87 85 84 89 92 93 94 91 87 91 95 90 85 86 93 94 89 86 83 81 85 86 86 87 92 97 92 89 92 87 84 85 82 82 80 77
73 73 73 76 77 77 81 82 82 82 82 83 82 79 78 79 81 82 81 83 84 85 85 84 87 91 89 87 90 93 93 94 95 92 89 92 96 95 90 87 91 94 92 92 87 82 84 84 83 85 92 96 87 84 90 89 87 86 82 81 80 78
73 73 73 76 78 77 78 80 82 83 81 81 81 79 80 78 77 79 80 81 83 85 85 84 86 87 83 82 90 94 92 91 91 90 90 92 95 95 93 91 93 94 95 95 90 87 88 85 81 81 86 91 89 86 81 80 88 89 86 85 81 80
73 74 74 75 77 78 78 79 80 80 78 78 77 77 78 75 73 74 75 76 78 82 86 87 86 84 81 81 85 90 91 87 86 89 91 92 94 94 94 94 93 91 94 95 93 93 92 87 85 85 86 85 88 91 81 78 91 94 93 90 85 83
73 74 75 76 77 77 77 78 77 77 77 77 77 76 75 74 72 73 74 74 76 81 86 88 88 87 88 87 86 90 94 90 84 86 92 95 96 95 94 92 89 87 93 96 95 95 92 88 89 93 93 84 84 92 86 81 89 93 95 94 88 88
75 74 74 76 78 78 78 78 77 78 79 79 79 77 75 74 73 73 75 76 77 80 85 87 87 88 90 92 90 89 92 93 88 84 88 94 96 97 97 93 91 90 92 96 93 90 89 87 87 92 94 89 90 93 85 79 81 85 94 97 94 93
77 76 76 77 79 79 79 81 82 82 82 81 81 79 77 75 74 74 76 76 78 80 83 86 87 88 89 91 93 88 88 91 91 88 86 89 93 97 99 97 95 93 94 97 92 87 88 84 83 90 91 91 95 93 88 86 83 82 90 94 94 95
74 74 75 76 78 79 80 82 83 83 82 83 83 81 81 79 77 76 76 77 79 81 83 85 86 88 88 89 91 89 89 91 93 95 91 88 91 94 98 99 96 94 93 94 93 91 91 86 84 87 88 91 94 93 93 95 92 89 90 91 93 93
67 68 68 70 72 75 76 77 78 79 79 79 80 79 80 80 78 76 75 75 77 79 85 87 84 86 87 88 90 90 89 90 93 97 96 93 93 93 97 100 97 95 94 94 96 96 95 92 86 83 88 94 92 85 85 90 91 91 92 93 94 94
65 66 65 66 68 69 69 71 72 73 73 73 75 76 77 78 77 77 76 76 76 77 85 88 84 84 86 88 93 93 90 90 92 96 97 97 97 95 97 99 98 97 97 96 97 98 97 93 85 82 88 93 90 86 82 82 84 85 88 88 90 93
66 67 67 67 69 69 69 70 70 69 70 71 72 74 75 74 74 75 74 75 75 77 84 89 85 85 87 87 91 95 95 93 93 95 97 97 98 97 97 98 99 99 99 98 96 99 98 90 83 86 92 89 87 89 85 82 84 83 83 84 87 93
67 68 70 71 72 73 73 74 75 74 73 74 73 73 73 72 71 72 73 74 76 77 82 88 89 87 86 83 84 91 94 96 98 97 96 98 98 96 95 97 99 99 99 98 97 98 98 91 86 91 95 88 85 88 88 87 87 84 81 82 87 92
71 70 71 72 74 76 77 78 80 80 79 78 77 74 72 71 71 72 74 76 79 82 84 89 93 91 87 81 81 85 88 93 99 99 98 99 99 97 96 97 99 100 99 97 97 98 98 96 94 96 94 87 85 89 93 92 88 82 79 78 81 84
72 72 72 74 76 79 80 81 82 82 83 83 82 80 77 74 73 74 77 81 86 88 89 92 96 94 88 82 80 84 88 91 94 97 99 98 97 98 98 98 99 100 99 96 97 99 98 99 99 98 92 87 91 94 95 92 84 79 79 79 79 78
74 75 75 76 78 80 81 82 83 83 84 85 85 85 83 80 78 79 83 87 87 86 89 92 95 96 91 86 85 87 90 92 92 95 99 98 98 99 98 99 99 100 98 94 96 99 99 98 97 95 90 90 96 96 92 89 84 83 84 83 83 81
Wind_Speed
18 16 16 15 13 13 14 14 13 13 14 15 15 15 14 13 12 9 9 10 10 9 9 8 8 8 7 8 9 11 11 10 12 12 10 9 8 7 7 7 7 5 6 8 11 16 18 16 14 13 13 13 13 13 12 9 10 10 10 10 9 11
21 20 19 16 15 14 14 15 13 12 13 14 15 15 14 11 10 9 8 10 9 7 6 6 8 8 7 8 10 11 11 11 12 13 11 9 8 7 7 7 8 7 7 8 12 15 15 14 13 11 11 10 11 11 9 8 12 12 12 10 10 12
23 22 21 18 16 14 14 16 14 12 11 12 13 13 12 10 9 9 9 10 10 8 7 6 8 8 8 8 9 10 11 12 13 12 12 10 8 7 6 7 9 8 8 9 11 12 12 12 11 9 9 9 10 10 8 8 10 10 9 7 9 12
22 21 20 20 17 13 14 17 16 14 12 11 12 12 12 12 12 11 11 11 11 12 12 11 9 8 9 9 7 8 10 11 13 13 12 11 9 8 7 7 9 10 10 10 9 8 7 7 5 5 6 7 7 7 7 8 9 9 9 7 9 11
20 19 18 19 17 15 16 19 19 16 14 14 14 14 14 15 15 13 12 12 13 14 13 13 12 10 10 9 6 6 8 10 12 12 13 12 10 10 9 8 9 12 12 10 10 10 9 5 1 2 2 3 4 4 5 8 9 10 8 6 8 9
19 19 18 18 18 18 18 18 20 18 17 16 15 15 16 16 15 15 14 14 14 13 12 12 13 13 11 8 5 4 5 7 10 11 13 14 11 11 11 10 10 12 13 11 9 8 10 8 3 2 3 4 4 5 6 8 9 9 6 3 6 10
19 20 19 19 18 18 17 16 18 18 18 16 16 15 15 14 14 14 14 13 14 12 12 13 12 13 13 10 7 6 6 6 8 10 13 14 12 12 13 12 12 13 14 12 10 10 10 8 5 5 6 5 5 5 5 9 9 6 4 2 5 10
19 19 18 17 16 16 15 14 15 17 16 14 15 14 10 9 10 12 12 10 11 13 13 13 11 12 14 14 12 12 11 9 11 11 13 15 14 15 15 15 15 14 14 13 12 11 12 9 6 7 7 6 6 5 5 7 8 5 3 2 5 9
19 18 15 13 12 13 12 11 12 15 17 12 9 9 5 6 8 9 12 12 12 13 13 12 12 13 15 15 15 15 14 12 14 13 13 15 16 17 16 16 17 15 14 15 13 11 12 10 8 7 7 7 6 5 5 6 7 6 5 4 5 8
16 16 14 11 9 10 10 9 10 12 15 10 6 6 7 10 11 10 13 15 14 13 14 13 13 14 16 16 16 16 14 14 16 15 14 16 17 18 18 16 16 16 15 15 14 11 12 11 10 8 8 9 8 6 6 6 7 8 7 6 5 6
14 14 13 12 9 10 10 10 9 9 9 7 7 8 10 12 12 13 15 15 14 14 14 14 13 13 14 16 16 16 15 15 17 16 15 16 17 18 18 17 16 16 16 14 12 12 14 12 10 10 10 10 9 8 8 7 8 9 8 7 6 5
13 13 12 11 10 10 10 9 9 7 7 8 9 10 11 10 9 11 13 13 12 12 13 14 15 13 12 13 15 16 16 16 16 16 16 17 19 18 18 19 17 15 15 14 13 13 14 14 12 12 12 10 10 10 10 9 8 9 9 8 5 4
12 12 12 12 12 11 10 9 8 8 8 9 9 10 10 8 7 8 10 11 12 13 15 17 18 17 14 11 12 15 16 15 15 17 18 17 18 16 15 17 16 14 14 15 15 14 15 16 14 12 13 12 12 11 10 10 9 10 10 8 7 6
12 11 12 12 12 11 8 8 7 8 9 9 8 9 8 6 7 9 10 11 13 14 14 16 16 15 15 14 13 14 15 16 16 17 18 17 17 15 15 16 14 13 13 14 15 15 16 16 14 13 13 14 13 11 11 11 10 11 11 9 10 9
8 8 9 9 8 7 6 7 6 8 9 8 6 7 7 7 8 10 11 12 12 12 12 13 13 12 14 15 14 14 15 18 18 18 18 18 19 17 16 17 15 14 14 15 16 16 16 15 15 14 14 14 13 12 11 11 11 12 11 11 12 11
6 6 8 8 8 6 6 7 6 7 8 7 6 7 8 8 9 10 11 12 11 12 11 12 13 14 14 14 14 15 15 18 19 19 20 19 20 20 18 18 17 15 14 15 16 17 18 17 16 16 15 15 14 13 12 12 12 12 12 12 12 11
5 5 6 7 8 7 7 8 7 8 8 8 10 10 10 9 8 10 11 11 11 12 12 11 11 12 14 14 15 15 16 18 19 20 20 20 21 20 20 19 19 18 15 14 14 16 19 18 18 16 15 16 14 13 13 12 13 12 12 11 11 11
4 4 4 5 6 5 5 5 6 7 8 9 10 10 8 8 9 10 10 11 11 11 10 10 10 10 13 13 13 16 18 19 19 20 20 21 21 21 21 21 21 20 17 15 12 12 14 16 20 18 13 15 15 15 13 12 13 12 13 12 10 11
4 4 3 3 3 3 2 2 3 4 5 6 7 7 6 6 8 9 9 10 11 10 9 9 11 11 13 13 14 16 18 20 20 20 21 22 22 21 22 22 22 21 19 18 15 12 11 12 18 17 13 14 15 15 15 12 13 12 12 13 10 11
5 4 3 3 2 1 0 1 2 2 4 5 5 7 6 5 5 7 8 9 9 10 10 11 13 14 14 13 15 16 18 21 20 20 21 22 23 23 23 23 23 23 21 21 19 16 15 13 15 15 12 17 18 12 14 12 14 12 10 12 11 10
5 5 4 3 3 2 2 3 3 3 4 5 5 6 7 6 6 7 7 8 9 10 11 12 13 14 14 12 14 16 17 20 21 21 21 20 22 23 23 22 22 23 23 22 20 18 17 14 11 10 11 16 16 9 10 11 13 12 9 10 11 10
5 5 4 3 3 2 1 2 3 4 5 5 5 4 6 6 7 8 8 8 10 10 11 12 12 14 15 13 14 16 17 19 21 22 22 20 21 22 22 22 20 21 22 22 21 18 16 12 7 6 7 10 9 7 8 9 11 11 8 9 11 11
5 4 3 3 2 3 2 3 3 5 7 7 6 6 6 7 7 8 8 9 10 10 11 11 12 14 15 15 15 16 17 19 20 21 22 22 22 23 23 23 20 20 21 21 20 18 16 14 11 10 6 5 5 4 4 7 9 11 11 10 10 11
4 4 3 2 2 3 3 5 4 5 6 7 8 9 9 9 9 10 10 11 12 11 12 13 13 14 16 16 15 16 18 19 20 21 21 22 23 24 25 24 22 21 21 19 19 19 18 18 15 13 7 3 4 3 2 6 9 11 13 11 10 11
4 3 2 2 1 2 3 4 4 5 6 7 9 10 11 11 11 11 12 13 13 13 14 15 16 17 18 18 16 16 18 20 20 20 20 22 24 25 25 24 22 22 22 21 20 18 17 18 20 18 12 4 3 2 2 6 8 7 11 12 11 12
3 2 1 1 1 2 3 4 5 7 8 8 9 9 10 10 9 10 11 12 13 13 14 15 17 18 18 19 18 18 18 19 20 20 21 22 23 24 25 25 24 23 23 23 21 16 15 17 19 21 20 14 8 5 2 8 7 2 7 10 11 12
2 1 0 1 2 3 4 6 6 7 9 10 11 11 12 12 12 12 12 11 12 13 14 15 16 16 16 17 19 19 18 19 20 21 22 22 23 24 25 25 25 24 24 24 23 18 17 18 16 18 22 20 15 11 4 8 5 2 4 6 9 12
3 2 1 1 3 4 5 7 8 9 10 11 12 13 15 15 14 13 14 14 13 14 14 15 16 16 16 17 18 20 20 21 21 22 23 23 24 23 24 24 23 24 25 24 25 24 21 20 18 16 18 20 19 14 7 7 8 6 3 2 5 8
4 4 4 3 4 4 6 8 9 10 11 12 13 14 15 15 16 15 15 15 15 16 16 15 15 17 17 17 19 21 22 23 22 24 25 25 24 23 22 24 24 24 26 24 24 25 22 22 20 15 15 18 16 12 6 5 8 7 3 2 3 3
3 4 4 4 5 6 7 8 10 11 12 13 14 15 16 17 17 17 17 17 17 18 17 16 16 17 18 19 20 21 23 24 23 23 25 26 26 24 23 24 24 24 27 27 25 23 22 21 20 17 16 17 14 10 6 4 6 7 5 3 2 3
3 3 4 5 6 7 8 9 10 11 12 13 14 15 16 17 18 18 19 19 19 19 17 17 17 18 20 20 21 22 23 24 24 23 24 26 25 25 24 24 24 24 25 27 25 22 21 21 21 20 19 19 18 17 14 9 11 12 8 4 4 3
6 6 6 7 7 8 8 9 10 11 12 12 13 14 16 17 18 19 20 20 21 21 17 16 18 21 22 21 21 23 23 23 25 24 24 25 25 25 24 23 24 24 24 26 25 22 22 23 21 20 20 19 19 21 20 15 14 15 12 10 8 4
8 8 8 9 10 10 10 11 11 12 13 13 13 14 15 17 18 18 20 20 21 21 19 17 18 20 21 22 22 23 22 23 24 24 24 25 24 25 24 23 24 25 25 26 25 24 24 24 22 20 20 20 19 19 19 17 15 15 14 12 10 6
8 8 9 10 10 11 12 13 13 14 15 15 15 15 16 17 19 19 20 21 22 22 20 20 20 19 20 22 24 25 25 24 24 22 22 22 22 23 23 22 24 25 25 25 25 24 24 23 23 22 20 20 20 18 17 17 17 16 14 12 11 9
9 9 9 10 11 12 12 13 14 15 15 16 16 17 17 18 19 20 22 23 23 22 21 21 20 21 22 22 24 27 25 24 23 20 19 20 20 21 21 21 22 23 23 23 23 24 24 23 23 23 21 20 20 19 18 18 18 16 14 12 12 11
9 10 11 12 13 13 13 14 15 15 16 17 17 17 18 19 19 21 23 23 22 22 22 21 20 23 24 22 23 25 22 21 22 20 20 20 20 20 20 20 21 21 22 22 22 23 24 22 21 21 21 20 19 19 18 18 17 16 14 12 11 10
10 11 12 13 13 14 14 15 15 15 16 18 18 18 20 21 21 22 22 21 22 23 23 22 21 23 25 23 22 23 20 18 20 21 21 20 19 18 18 19 20 20 21 21 20 19 20 21 19 18 20 21 20 18 17 16 17 15 13 12 11 10
Wind_Direction
140 142 145 152 156 163 172 172 168 167 169 174 177 177 177 179 176 171 172 177 183 183 190 203 202 203 213 215 208 210 209 196 186 178 169 162 159 152 145 143 137 122 113 111 116 124 122 116 111 107 100 92 88 82 74 89 108 109 111 112 112 111
151 155 157 157 157 167 172 166 166 168 173 181 183 185 181 177 175 176 178 172 165 165 182 195 188 198 220 223 214 212 211 204 196 188 179 173 172 167 158 155 152 139 128 120 120 126 122 112 107 101 95 93 90 80 73 99 114 115 119 122 116 109
159 162 159 155 160 172 168 158 160 163 171 183 185 187 179 170 174 184 191 175 167 182 199 202 198 203 209 220 223 217 217 212 208 199 187 183 182 178 173 168 164 154 144 134 125 126 121 111 102 91 88 86 87 93 100 111 117 121 122 125 125 123
165 166 160 157 163 170 162 156 162 165 170 180 182 184 178 176 184 192 200 188 184 199 205 203 204 206 201 209 221 220 222 218 215 210 197 194 192 189 190 184 179 171 161 153 146 151 149 124 94 72 83 87 96 114 117 112 122 131 127 126 132 129
164 167 164 162 167 169 167 165 166 167 174 183 184 186 186 187 190 192 201 203 201 207 208 202 197 200 204 207 213 221 227 222 219 215 207 204 201 201 202 199 194 185 178 175 170 186 203 191 8 2 82 103 132 155 137 125 137 145 141 135 136 129
163 166 169 171 173 173 175 176 171 170 177 188 191 191 194 197 196 193 200 211 215 218 218 212 200 194 196 203 216 227 232 229 224 219 214 211 211 214 212 209 209 201 194 193 193 205 211 200 229 255 169 159 165 172 152 144 157 162 155 139 140 140
163 167 174 178 176 177 180 181 178 177 181 192 201 201 200 205 207 204 207 215 224 229 226 224 211 194 192 198 209 213 216 225 226 227 221 211 211 221 220 215 216 216 208 208 224 226 216 200 205 215 178 179 196 183 160 152 161 167 157 128 145 150
168 174 180 179 177 180 182 185 186 184 185 193 206 209 206 215 220 217 220 223 235 243 235 234 229 213 207 204 207 208 204 205 213 226 231 215 208 218 220 216 216 222 222 222 232 223 213 204 199 212 185 185 212 192 167 152 153 171 177 153 150 157
171 179 183 179 176 179 181 187 189 188 193 196 202 209 207 227 239 242 239 231 233 244 240 236 234 231 225 218 218 220 213 205 206 213 229 223 215 218 217 218 218 218 224 230 234 218 207 205 199 208 190 186 205 182 166 145 137 159 170 165 154 156
170 179 186 180 171 174 181 191 192 191 197 194 187 198 209 228 237 244 246 234 221 226 232 231 233 238 237 232 227 224 221 216 212 206 218 226 223 223 216 218 222 214 219 231 236 219 200 203 201 205 205 195 192 177 174 160 148 152 151 165 166 157
171 176 183 181 173 178 187 194 197 194 194 186 188 199 207 224 229 229 239 233 215 214 226 231 235 241 241 241 236 228 224 222 219 207 213 225 228 231 221 217 224 217 217 226 233 219 200 200 204 206 209 198 189 188 182 172 163 155 159 182 183 167
172 173 177 181 179 188 195 193 196 195 188 187 199 207 205 219 225 224 239 239 227 224 230 234 234 236 241 247 245 235 226 225 224 211 212 222 227 235 225 218 226 222 217 220 223 217 206 207 215 214 209 201 196 195 181 170 169 162 174 191 182 169
171 174 175 181 182 186 190 188 193 197 201 205 214 219 215 228 232 228 246 253 251 245 240 239 235 233 235 241 240 232 225 227 228 218 214 216 224 231 217 215 227 224 221 224 223 223 218 216 222 218 210 206 198 196 184 173 176 169 173 184 180 178
171 179 180 188 187 185 187 187 199 213 221 220 206 203 201 212 233 240 245 247 247 243 239 238 233 224 221 223 224 226 227 229 230 225 221 219 226 230 214 212 223 224 226 230 231 230 222 221 228 222 212 206 199 196 184 174 179 175 174 179 179 183
167 175 181 192 193 193 192 185 205 225 233 237 207 192 194 201 224 233 233 237 240 237 230 224 223 220 217 217 215 218 224 228 231 230 227 225 228 231 221 215 220 225 225 227 234 234 224 223 231 230 217 205 200 196 182 175 179 174 178 182 180 183
150 166 177 185 190 199 206 194 207 228 235 248 231 213 214 216 217 217 226 240 244 243 237 226 226 229 227 223 218 219 224 227 232 231 229 229 228 229 224 220 220 223 227 225 229 236 235 230 229 231 220 206 202 194 183 183 180 172 180 185 184 185
138 157 168 176 184 192 209 203 205 217 212 202 206 212 215 218 212 208 218 231 238 246 248 241 235 230 229 229 226 227 227 229 231 229 229 229 228 226 225 227 224 221 227 230 231 235 236 234 236 240 222 206 202 191 185 186 180 176 183 184 187 187
121 123 130 151 165 168 189 193 194 205 201 195 205 212 211 216 215 213 217 221 227 236 239 234 230 227 226 230 233 233 230 227 227 227 227 227 228 229 227 231 230 226 225 228 237 237 231 230 237 251 240 219 210 190 186 189 180 180 186 184 189 185
112 108 108 120 133 145 176 201 209 207 213 216 216 214 215 218 216 221 225 216 213 220 223 219 217 217 221 223 224 227 229 226 224 228 231 228 229 232 232 232 232 232 228 229 237 239 244 240 237 250 253 247 237 195 184 186 178 183 191 188 189 182
110 104 94 82 84 86 327 280 258 256 252 242 233 224 227 234 227 232 231 214 207 217 224 221 213 211 218 222 217 218 224 225 225 231 235 232 230 232 233 232 233 235 232 235 240 240 248 252 246 253 253 260 261 210 180 177 176 185 193 190 188 179
104 97 83 62 50 47 357 334 316 301 288 271 260 238 233 244 237 232 231 218 212 219 227 227 217 215 223 224 217 218 220 222 223 228 234 234 233 232 232 234 235 237 236 236 240 240 243 247 248 255 254 259 263 224 185 176 179 190 189 186 187 182
94 85 73 66 51 39 4 336 321 311 316 305 287 264 252 258 247 239 237 222 216 222 229 233 229 225 229 229 224 223 223 223 222 226 232 234 233 230 230 233 234 236 236 236 237 235 234 232 211 204 239 260 255 231 208 185 186 197 192 186 189 190
90 83 65 70 51 22 7 333 316 305 309 304 294 284 267 265 258 253 248 231 227 228 227 234 237 228 229 234 234 231 227 225 223 226 231 231 232 229 227 228 229 232 233 233 234 230 227 222 199 185 205 253 234 214 218 200 201 208 204 198 197 200
91 84 63 56 26 5 347 324 316 302 300 293 285 278 269 268 262 255 250 241 238 234 229 229 229 226 230 234 235 236 234 229 227 228 229 230 230 228 227 226 224 227 229 228 230 229 228 224 210 190 182 255 230 185 218 203 199 210 211 208 209 210
93 88 68 51 359 335 328 319 311 296 289 274 266 262 258 261 261 255 250 247 244 240 235 232 230 234 241 239 234 237 238 234 232 231 228 230 230 227 226 224 219 221 226 227 225 222 223 225 220 205 190 206 215 214 244 170 167 200 208 208 213 215
90 97 69 30 321 306 306 302 299 297 294 285 279 271 265 270 274 269 263 258 253 246 242 240 238 242 248 246 237 235 239 237 233 231 229 228 229 228 225 223 220 220 225 229 225 215 213 219 221 214 206 209 222 260 244 148 146 184 195 207 215 213
83 97 61 297 289 294 294 291 293 294 293 294 295 295 298 302 297 287 281 273 263 255 248 243 243 243 245 246 239 234 238 241 237 234 232 229 230 228 225 225 221 217 219 225 224 217 213 213 214 215 215 219 231 245 195 145 157 150 166 211 221 215
41 20 9 308 292 291 291 296 300 297 291 289 291 295 300 302 299 292 287 280 271 266 257 248 246 244 241 241 241 239 238 242 243 239 235 235 234 229 226 226 223 216 216 221 223 221 218 216 215 215 212 215 224 226 192 155 170 157 124 183 207 217
14 7 8 343 323 313 305 308 307 304 302 302 303 303 303 302 300 297 291 286 278 271 264 256 251 250 249 245 244 246 243 243 246 243 239 240 240 234 228 228 224 217 214 216 220 222 220 216 216 214 209 212 216 212 186 159 171 168 163 168 168 198
14 5 360 348 340 333 325 322 316 312 312 314 315 314 312 308 305 302 298 292 285 276 269 265 261 257 255 250 246 248 246 244 244 243 243 244 244 240 233 230 228 221 218 218 217 216 215 215 215 212 211 212 208 198 180 157 179 187 187 181 176 197
41 13 355 351 344 334 328 323 318 313 311 312 314 314 313 312 310 308 304 300 295 288 279 274 271 266 261 256 251 248 247 247 245 242 243 245 245 241 234 231 231 227 220 217 214 211 211 212 213 210 209 211 210 209 205 193 191 191 187 181 180 198
49 31 5 356 346 339 333 324 316 310 307 307 308 307 305 305 306 305 304 304 303 299 293 285 279 275 272 270 266 258 250 249 248 246 245 245 244 242 237 233 233 230 222 215 212 210 209 207 208 209 209 212 215 215 213 207 200 197 195 191 187 184
38 28 8 357 350 345 339 332 326 321 319 318 314 309 306 305 305 305 305 306 307 306 305 300 291 284 280 281 283 275 264 257 253 250 248 247 246 245 240 235 231 227 222 217 212 211 212 207 207 210 211 216 219 218 216 215 210 203 199 194 194 197
21 19 7 357 351 345 339 336 333 330 329 328 325 323 319 315 313 313 313 312 311 311 311 306 298 292 288 286 284 281 274 264 257 254 252 249 245 242 239 233 229 225 222 220 216 215 216 213 211 212 213 217 219 217 216 216 212 205 202 200 198 190
12 10 5 357 351 346 341 339 336 333 331 329 327 325 320 316 315 316 316 315 314 313 310 305 297 296 297 291 281 280 277 267 262 260 253 247 242 238 233 228 226 223 219 216 214 215 215 214 212 210 209 212 216 217 215 216 214 210 209 212 205 188
9 5 2 358 354 351 346 342 339 336 334 333 331 328 323 320 319 320 322 321 320 317 312 306 300 301 302 294 282 281 281 274 269 261 248 245 243 235 229 225 222 220 217 212 211 215 213 210 209 207 205 207 213 216 216 219 217 211 213 216 207 187
11 6 2 359 355 352 348 343 340 338 336 335 333 330 328 327 327 328 330 330 327 322 315 309 305 305 303 296 288 284 281 275 266 257 249 246 240 230 225 220 217 219 216 210 209 210 205 203 204 204 203 205 210 213 215 219 214 206 211 212 200 184